A7ABI OMDB-OTHH

Flight info

Callsign A7ABI
Flight time N/A
Altitude 8000
Route DCT
Aircraft BE36/L-BDFGLORY/S

Departure

Time N/A
Airport Dubai International Airport (OMDB)

Arrival

Time 2026-05-04 14:48
Airport Hamad International Airport (OTHH)
Time Latitude Longitude Altitude Speed Heading
2026-05-04 13:47 25.73321 54.38743 8514 ft 127 kts 302°
2026-05-04 13:47 25.73346 54.38689 8515 ft 127 kts 302°
2026-05-04 13:47 25.73372 54.38635 8515 ft 127 kts 302°
2026-05-04 13:48 25.73397 54.38581 8513 ft 126 kts 302°
2026-05-04 13:48 25.73422 54.38526 8516 ft 126 kts 300°
2026-05-04 13:48 25.73445 54.38471 8516 ft 127 kts 298°
2026-05-04 13:48 25.73466 54.38415 8514 ft 127 kts 296°
2026-05-04 13:49 25.73485 54.38358 8513 ft 127 kts 293°
2026-05-04 13:49 25.73501 54.38299 8516 ft 128 kts 290°
2026-05-04 13:49 25.73514 54.38239 8516 ft 129 kts 287°
2026-05-04 13:49 25.73523 54.38177 8510 ft 129 kts 283°
2026-05-04 13:50 25.73529 54.38115 8515 ft 130 kts 280°
2026-05-04 13:50 25.73532 54.38052 8512 ft 131 kts 276°
2026-05-04 13:50 25.73530 54.37989 8512 ft 132 kts 272°
2026-05-04 13:50 25.73525 54.37926 8516 ft 132 kts 269°
2026-05-04 13:51 25.73516 54.37863 8511 ft 133 kts 265°
2026-05-04 13:51 25.73504 54.37800 8509 ft 134 kts 262°
2026-05-04 13:51 25.73488 54.37738 8510 ft 134 kts 259°
2026-05-04 13:51 25.73470 54.37676 8515 ft 135 kts 257°
2026-05-04 13:52 25.73427 54.37555 8520 ft 136 kts 254°
2026-05-04 13:52 25.73404 54.37495 8515 ft 136 kts 253°
2026-05-04 13:52 25.73379 54.37435 8514 ft 136 kts 252°
2026-05-04 13:53 25.73354 54.37375 8513 ft 136 kts 252°
2026-05-04 13:53 25.73329 54.37316 8513 ft 136 kts 252°
2026-05-04 13:53 25.73304 54.37258 8515 ft 136 kts 251°
2026-05-04 13:54 25.73253 54.37139 8522 ft 136 kts 252°
2026-05-04 13:54 25.73228 54.37080 8517 ft 136 kts 252°
2026-05-04 13:54 25.73178 54.36961 8516 ft 136 kts 252°
2026-05-04 13:55 25.73153 54.36902 8520 ft 135 kts 252°
2026-05-04 13:55 25.73105 54.36784 8513 ft 135 kts 253°
2026-05-04 13:55 25.73080 54.36724 8520 ft 135 kts 253°
2026-05-04 13:56 25.73056 54.36665 8517 ft 135 kts 253°
2026-05-04 13:56 25.73032 54.36605 8521 ft 135 kts 253°
2026-05-04 13:56 25.72983 54.36486 8516 ft 135 kts 253°
2026-05-04 13:57 25.72959 54.36428 8519 ft 135 kts 253°
2026-05-04 13:57 25.72935 54.36368 8520 ft 135 kts 252°
2026-05-04 13:58 25.72862 54.36190 8521 ft 135 kts 252°
2026-05-04 13:58 25.72813 54.36072 8516 ft 135 kts 252°
2026-05-04 13:58 25.72788 54.36013 8521 ft 135 kts 252°
2026-05-04 13:59 25.72764 54.35954 8515 ft 135 kts 252°
2026-05-04 13:59 25.72739 54.35895 8514 ft 135 kts 252°
2026-05-04 13:59 25.71946 54.33965 8520 ft 136 kts 252°
2026-05-04 14:00 25.71226 54.32203 8512 ft 136 kts 252°
2026-05-04 14:00 25.70439 54.30300 8513 ft 136 kts 252°
2026-05-04 14:00 25.70044 54.29345 8514 ft 136 kts 252°
2026-05-04 14:01 25.69652 54.28392 8519 ft 136 kts 252°
2026-05-04 14:01 25.69262 54.27438 8513 ft 136 kts 252°
2026-05-04 14:01 25.68477 54.25531 8514 ft 136 kts 252°
2026-05-04 14:02 25.68086 54.24581 8512 ft 135 kts 253°
2026-05-04 14:02 25.67686 54.23642 8517 ft 134 kts 252°
2026-05-04 14:02 25.67280 54.22711 8516 ft 134 kts 252°
2026-05-04 14:02 25.66877 54.21782 8517 ft 134 kts 252°
2026-05-04 14:03 25.66481 54.20865 8517 ft 133 kts 252°
2026-05-04 14:03 25.66076 54.19931 8517 ft 133 kts 252°
2026-05-04 14:03 25.65682 54.19019 8513 ft 132 kts 252°
2026-05-04 14:03 25.65281 54.18099 8514 ft 132 kts 252°
2026-05-04 14:04 25.64482 54.16250 8518 ft 133 kts 252°
2026-05-04 14:04 25.64083 54.15330 8514 ft 132 kts 252°
2026-05-04 14:04 25.63683 54.14408 8514 ft 132 kts 252°
2026-05-04 14:05 25.62887 54.12574 8512 ft 132 kts 252°
2026-05-04 14:05 25.62489 54.11654 8514 ft 133 kts 252°
2026-05-04 14:05 25.62089 54.10731 8522 ft 133 kts 252°
2026-05-04 14:06 25.61688 54.09804 8524 ft 134 kts 252°
2026-05-04 14:06 25.61292 54.08885 8527 ft 134 kts 252°
2026-05-04 14:06 25.60889 54.07956 8522 ft 133 kts 252°
2026-05-04 14:06 25.60485 54.07026 8519 ft 133 kts 252°
2026-05-04 14:07 25.60083 54.06103 8518 ft 133 kts 252°
2026-05-04 14:07 25.59683 54.05179 8520 ft 133 kts 252°
2026-05-04 14:07 25.59283 54.04251 8522 ft 133 kts 252°
2026-05-04 14:07 25.58884 54.03325 8522 ft 133 kts 252°
2026-05-04 14:08 25.58481 54.02395 8525 ft 133 kts 252°
2026-05-04 14:08 25.58080 54.01470 8520 ft 133 kts 252°
2026-05-04 14:08 25.57684 54.00554 8518 ft 133 kts 252°
2026-05-04 14:08 25.57285 53.99627 8518 ft 133 kts 252°
2026-05-04 14:09 25.56461 53.97803 8515 ft 132 kts 252°
2026-05-04 14:09 25.56049 53.96901 8515 ft 131 kts 252°
2026-05-04 14:10 25.55222 53.95106 8522 ft 130 kts 252°
2026-05-04 14:10 25.54806 53.94209 8512 ft 130 kts 252°
2026-05-04 14:10 25.54391 53.93317 8512 ft 130 kts 252°
2026-05-04 14:10 25.53975 53.92422 8512 ft 130 kts 252°
2026-05-04 14:11 25.53560 53.91530 8516 ft 130 kts 252°
2026-05-04 14:11 25.52734 53.89738 8515 ft 130 kts 252°
2026-05-04 14:11 25.52323 53.88843 8521 ft 130 kts 252°
2026-05-04 14:12 25.51912 53.87947 8520 ft 130 kts 252°
2026-05-04 14:12 25.51501 53.87064 8514 ft 130 kts 252°
2026-05-04 14:12 25.50671 53.85275 8514 ft 131 kts 252°
2026-05-04 14:13 25.46892 53.77082 8514 ft 130 kts 252°
2026-05-04 14:13 25.40004 53.62860 8525 ft 131 kts 252°
2026-05-04 14:13 25.33057 53.48647 8522 ft 131 kts 252°
2026-05-04 14:13 25.26154 53.34540 8527 ft 130 kts 252°
2026-05-04 14:14 25.19257 53.20584 8522 ft 130 kts 252°
2026-05-04 14:14 25.13052 53.08076 8529 ft 131 kts 252°
2026-05-04 14:14 25.12612 53.07192 8529 ft 131 kts 252°
2026-05-04 14:15 25.11737 53.05429 8527 ft 131 kts 252°
2026-05-04 14:15 25.10862 53.03673 8527 ft 131 kts 252°
2026-05-04 14:16 25.10354 53.01857 8531 ft 119 kts 276°
2026-05-04 14:16 25.10306 53.00953 8531 ft 120 kts 276°
2026-05-04 14:17 25.10218 52.99105 8526 ft 121 kts 276°
2026-05-04 14:17 25.10174 52.98179 8517 ft 122 kts 276°
2026-05-04 14:17 25.10082 52.96315 8524 ft 121 kts 276°
2026-05-04 14:18 25.10035 52.95391 8524 ft 121 kts 276°
2026-05-04 14:18 25.09949 52.93553 8524 ft 120 kts 276°
2026-05-04 14:19 25.09868 52.91707 8525 ft 121 kts 276°
2026-05-04 14:19 25.09840 52.91092 8525 ft 121 kts 276°
2026-05-04 14:19 25.09801 52.90160 8511 ft 122 kts 276°
2026-05-04 14:19 25.09758 52.89224 8511 ft 122 kts 276°
2026-05-04 14:20 25.09713 52.88292 8511 ft 122 kts 276°
2026-05-04 14:20 25.09667 52.87361 8511 ft 121 kts 276°
2026-05-04 14:20 25.09624 52.86426 8510 ft 121 kts 276°
2026-05-04 14:21 25.09539 52.84577 8511 ft 121 kts 276°
2026-05-04 14:21 25.09499 52.83667 8511 ft 121 kts 276°
2026-05-04 14:21 25.09457 52.82741 8512 ft 121 kts 276°
2026-05-04 14:21 25.09412 52.81815 8511 ft 121 kts 276°
2026-05-04 14:22 25.09365 52.80886 8511 ft 121 kts 276°
2026-05-04 14:22 25.09319 52.79960 8512 ft 121 kts 276°
2026-05-04 14:22 25.09274 52.79043 8511 ft 121 kts 276°
2026-05-04 14:22 25.09228 52.78104 8516 ft 121 kts 276°
2026-05-04 14:23 25.09145 52.76256 8509 ft 121 kts 276°
2026-05-04 14:23 25.09105 52.75325 8508 ft 121 kts 276°
2026-05-04 14:23 25.09065 52.74397 8508 ft 121 kts 276°
2026-05-04 14:24 25.09025 52.73467 8508 ft 121 kts 276°
2026-05-04 14:24 25.08986 52.72538 8507 ft 121 kts 276°
2026-05-04 14:24 25.08945 52.71622 8507 ft 121 kts 276°
2026-05-04 14:24 25.08903 52.70696 8508 ft 121 kts 276°
2026-05-04 14:25 25.08861 52.69771 8510 ft 121 kts 276°
2026-05-04 14:25 25.08779 52.67917 8510 ft 120 kts 276°
2026-05-04 14:25 25.08738 52.66986 8515 ft 125 kts 276°
2026-05-04 14:26 25.08705 52.66010 8517 ft 131 kts 276°
2026-05-04 14:26 25.08673 52.65018 8517 ft 127 kts 276°
2026-05-04 14:26 25.08637 52.64055 8515 ft 124 kts 276°
2026-05-04 14:26 25.08599 52.63114 8511 ft 122 kts 276°
2026-05-04 14:27 25.08559 52.62184 8509 ft 121 kts 276°
2026-05-04 14:27 25.08515 52.61270 8506 ft 120 kts 276°
2026-05-04 14:27 25.08472 52.60352 8504 ft 119 kts 276°
2026-05-04 14:27 25.08432 52.59438 8502 ft 119 kts 276°
2026-05-04 14:28 25.08390 52.58528 8500 ft 118 kts 276°
2026-05-04 14:28 25.08349 52.57622 8498 ft 118 kts 276°
2026-05-04 14:28 25.08307 52.56719 8508 ft 118 kts 276°
2026-05-04 14:28 25.08263 52.55816 8504 ft 118 kts 276°
2026-05-04 14:29 25.08172 52.54014 8499 ft 118 kts 276°
2026-05-04 14:29 25.08085 52.52204 8499 ft 118 kts 276°
2026-05-04 14:30 25.08049 52.51297 8497 ft 118 kts 276°
2026-05-04 14:30 25.08013 52.50388 8498 ft 118 kts 276°
2026-05-04 14:30 25.07943 52.48572 8497 ft 119 kts 276°
2026-05-04 14:31 25.07908 52.47673 8497 ft 119 kts 276°
2026-05-04 14:31 25.07837 52.45848 8500 ft 119 kts 276°
2026-05-04 14:32 25.07772 52.44025 8503 ft 119 kts 276°
2026-05-04 14:32 25.07740 52.43113 8503 ft 119 kts 276°
2026-05-04 14:32 25.07709 52.42202 8503 ft 118 kts 276°
2026-05-04 14:32 25.07676 52.41291 8503 ft 119 kts 276°
2026-05-04 14:33 25.07642 52.40382 8503 ft 119 kts 276°
2026-05-04 14:33 25.07609 52.39482 8502 ft 119 kts 276°
2026-05-04 14:33 25.07576 52.38573 8502 ft 119 kts 276°
2026-05-04 14:33 25.07540 52.37660 8503 ft 119 kts 276°
2026-05-04 14:34 25.07495 52.36461 8501 ft 119 kts 276°
2026-05-04 14:34 25.07679 52.21156 8242 ft 156 kts 276°
2026-05-04 14:34 25.07086 52.06245 8509 ft 120 kts 276°
2026-05-04 14:34 25.06810 51.95818 8508 ft 121 kts 276°
2026-05-04 14:35 25.06799 51.94991 8508 ft 120 kts 276°
2026-05-04 14:35 25.06788 51.94068 8508 ft 120 kts 277°
2026-05-04 14:35 25.06775 51.93145 8507 ft 120 kts 276°
2026-05-04 14:35 25.06766 51.92200 8425 ft 127 kts 276°
2026-05-04 14:36 25.06761 51.91204 8308 ft 132 kts 277°
2026-05-04 14:36 25.06756 51.90170 8172 ft 138 kts 277°
2026-05-04 14:36 25.06755 51.89076 7945 ft 146 kts 277°
2026-05-04 14:36 25.06758 51.87955 7632 ft 151 kts 277°
2026-05-04 14:37 25.06761 51.86777 7293 ft 156 kts 277°
2026-05-04 14:37 25.06761 51.85571 6946 ft 159 kts 277°
2026-05-04 14:37 25.06761 51.84337 6607 ft 162 kts 277°
2026-05-04 14:37 25.06755 51.83100 6175 ft 155 kts 277°
2026-05-04 14:38 25.06731 51.81961 5705 ft 144 kts 277°
2026-05-04 14:38 25.06700 51.80872 5227 ft 141 kts 276°
2026-05-04 14:38 25.06669 51.79794 4811 ft 138 kts 276°
2026-05-04 14:38 25.06634 51.78748 4456 ft 135 kts 276°
2026-05-04 14:39 25.06607 51.77716 4095 ft 133 kts 278°
2026-05-04 14:39 25.06611 51.76725 3749 ft 134 kts 276°
2026-05-04 14:39 25.06633 51.75694 3397 ft 135 kts 277°
2026-05-04 14:40 25.06564 51.73696 2995 ft 117 kts 276°
2026-05-04 14:40 25.06513 51.72796 2989 ft 118 kts 276°
2026-05-04 14:40 25.06475 51.71890 2966 ft 118 kts 284°
2026-05-04 14:40 25.06726 51.71042 2837 ft 120 kts 304°
2026-05-04 14:41 25.07215 51.70301 2703 ft 120 kts 321°
2026-05-04 14:41 25.07808 51.69693 2709 ft 113 kts 321°
2026-05-04 14:41 25.08918 51.68542 2941 ft 110 kts 323°
2026-05-04 14:42 25.10080 51.67487 3209 ft 106 kts 329°
2026-05-04 14:42 25.10722 51.67028 3132 ft 114 kts 334°
2026-05-04 14:42 25.11452 51.66628 3085 ft 115 kts 338°
2026-05-04 14:43 25.12170 51.66256 3007 ft 117 kts 340°
2026-05-04 14:43 25.12928 51.65937 2929 ft 115 kts 336°
2026-05-04 14:43 25.13658 51.65629 2867 ft 113 kts 342°
2026-05-04 14:43 25.14408 51.65318 2686 ft 116 kts 341°
2026-05-04 14:44 25.15149 51.65017 2488 ft 111 kts 344°
2026-05-04 14:44 25.15881 51.64770 2212 ft 110 kts 346°
2026-05-04 14:44 25.16511 51.64556 2028 ft 85 kts 343°
2026-05-04 14:44 25.17048 51.64323 1829 ft 82 kts 338°
2026-05-04 14:45 25.17608 51.64067 1676 ft 95 kts 338°
2026-05-04 14:45 25.18233 51.63787 1603 ft 99 kts 339°
2026-05-04 14:45 25.18894 51.63495 1466 ft 106 kts 338°
2026-05-04 14:45 25.19580 51.63175 1338 ft 108 kts 338°
2026-05-04 14:46 25.20285 51.62840 1155 ft 111 kts 339°
2026-05-04 14:46 25.20997 51.62540 1012 ft 111 kts 339°
2026-05-04 14:46 25.21711 51.62234 874 ft 109 kts 339°
2026-05-04 14:46 25.22425 51.61923 763 ft 111 kts 339°
2026-05-04 14:47 25.23158 51.61598 615 ft 117 kts 338°
2026-05-04 14:47 25.23915 51.61258 407 ft 116 kts 339°
2026-05-04 14:47 25.24655 51.60928 253 ft 113 kts 340°
2026-05-04 14:47 25.25379 51.60612 123 ft 110 kts 341°
2026-05-04 14:48 25.26026 51.60327 30 ft 83 kts 341°
2026-05-04 14:48 25.26421 51.60159 21 ft 44 kts 337°
2026-05-04 14:48 25.26629 51.60065 19 ft 27 kts 339°
2026-05-04 14:48 25.26781 51.60000 20 ft 19 kts 334°
2026-05-04 14:49 25.26887 51.60001 19 ft 15 kts 61°
2026-05-04 14:49 25.26899 51.60040 20 ft 0 kts 70°
2026-05-04 14:50 25.26907 51.60064 21 ft 10 kts 64°
2026-05-04 14:50 25.26955 51.60188 24 ft 24 kts 71°
2026-05-04 14:50 25.27028 51.60392 27 ft 32 kts 68°
2026-05-04 14:51 25.27116 51.60633 25 ft 35 kts 68°
2026-05-04 14:51 25.27196 51.60849 25 ft 28 kts 69°
2026-05-04 14:51 25.27272 51.61055 27 ft 29 kts 67°
2026-05-04 14:51 25.27347 51.61266 26 ft 30 kts 67°
2026-05-04 14:52 25.27420 51.61460 25 ft 22 kts 66°
2026-05-04 14:52 25.27381 51.61570 24 ft 17 kts 167°
2026-05-04 14:52 25.27248 51.61621 24 ft 23 kts 159°
2026-05-04 14:52 25.27112 51.61681 24 ft 13 kts 155°
2026-05-04 14:53 25.27011 51.61714 24 ft 17 kts 188°
2026-05-04 14:53 25.26964 51.61635 24 ft 15 kts 260°
2026-05-04 14:53 25.26929 51.61532 26 ft 6 kts 232°
2026-05-04 14:53 25.26887 51.61558 26 ft 10 kts 127°
2026-05-04 14:54 25.26856 51.61596 26 ft 0 kts 132°